Preview of NWS' New Version of Forecast
This preview is not operational and should not be used for support decisions.

Regional Weather Roundup (RWR)

Issued by National Weather Service (NWS)

                            
000
ASUS46 KSEW 210010
RWRWA 

WASHINGTON REGIONAL WEATHER ROUNDUP
NATIONAL WEATHER SERVICE SEATTLE WA
400 PM PST WED FEB 20 2019

NOTE:"FAIR" INDICATES FEW OR NO CLOUDS BELOW 12,000 FEET WITH NO 
SIGNIFICANT WEATHER AND/OR OBSTRUCTIONS TO VISIBILITY.

WAZ507-509-555>559-210100-
SEATTLE, TACOMA, EVERETT, AND VICINITY
  
CITY           SKY/WX    TMP DP  RH WIND       PRES   REMARKS
EVERETT        SUNNY     40  31  70 NW8       29.86S                  
6HR MIN TEMP:  37; 6HR MAX TEMP:  40;                                

BOEING FIELD   CLOUDY    42  32  67 VRB5      29.87S                  
6HR MIN TEMP:  40; 6HR MAX TEMP:  44; 6HR PCP:  0.01;                

RENTON         CLOUDY    42  32  67 NW7       29.87S                  
6HR MIN TEMP:  39; 6HR MAX TEMP:  44;                                

SEATAC AIRPORT PTSUNNY   41  31  67 N8        29.86S                  
6HR MIN TEMP:  39; 6HR MAX TEMP:  43;                                

JBLM-MCCHORD   CLOUDY    40  40  99 CALM      29.86S                  
PUYALLUP       CLOUDY    39  36  87 CALM      29.86R                  
BREMERTON      CLOUDY    41  34  75 NE5       29.87R                  
6HR MIN TEMP:  37; 6HR MAX TEMP:  42;                                

JBLM-FT LEWIS  CLOUDY    41  39  93 N10       29.85R                  
6HR MIN TEMP:  38; 6HR MAX TEMP:  43;                                

TACOMA NARROWS PTSUNNY   39  32  76 N7        29.87R                  
6HR MIN TEMP:  37; 6HR MAX TEMP:  41; 6HR PCP:  0.01;                

$$
 
WAZ001-503-506-510-514-515-210100-
NORTH INTERIOR
  
CITY           SKY/WX    TMP DP  RH WIND       PRES   REMARKS
BELLINGHAM     SUNNY     43  32  65 N7        29.88S                  
6HR MIN TEMP:  33; 6HR MAX TEMP:  43;                                

FRIDAY HARBOR  MOSUNNY   41  31  67 N8        29.90S                  
6HR MIN TEMP:  38; 6HR MAX TEMP:  44;                                

EASTSOUND      PTSUNNY   41  34  75 NW10      29.90R                  
PORT ANGELES   CLOUDY    40  32  73 SE3       29.91R                  
6HR MIN TEMP:  37; 6HR MAX TEMP:  41;                                

EDIZ HOOK      FAIR      41  33  71 CALM      29.91R                  
6HR MIN TEMP:  40; 6HR MAX TEMP:  42;                                

PORT TOWNSEND  CLOUDY    43  32  65 VRB7G14   29.88S                  
NAS WHIDBEY    PTSUNNY   46  31  55 N9        29.93R                  
6HR MIN TEMP:  42; 6HR MAX TEMP:  46;                                

ARLINGTON      CLOUDY    41  33  73 NW9       29.88S                  
6HR MIN TEMP:  37; 6HR MAX TEMP:  41;                                

BURLINGTON     MOSUNNY   41  34  75 NW10      29.88S                  
$$
 
WAZ020-022-039-040-504-511-512-210100-
SOUTHWEST INTERIOR
  
CITY           SKY/WX    TMP DP  RH WIND       PRES   REMARKS
SHELTON        CLOUDY    41  34  76 N5        29.85R                  
6HR MIN TEMP:  37; 6HR MAX TEMP:  43; 6HR PCP:  0.03;                

OLYMPIA        CLOUDY    42  33  70 N10       29.86R                  
6HR MIN TEMP:  39; 6HR MAX TEMP:  45; 6HR PCP: TRACE;                

CHEHALIS       CLOUDY    43  34  70 N8        29.84R                  
KELSO          MOSUNNY   47  33  58 N9        29.82S                  
6HR MIN TEMP:  39; 6HR MAX TEMP:  48; 6HR PCP: TRACE;                

VANCOUVER      MOSUNNY   42  36  79 E5        29.82R                  
6HR MIN TEMP:  41; 6HR MAX TEMP:  48; 6HR PCP:  0.04;                

SCAPPOOSE, OR  MOSUNNY   45  36  70 N3        29.81S                  
6HR MIN TEMP:  43; 6HR MAX TEMP:  52; 6HR PCP:  0.03;                

PORTLAND, OR   PTSUNNY   43  37  79 E9        29.82S                  
6HR MIN TEMP:  40; 6HR MAX TEMP:  47; 6HR PCP:  0.04;                

$$
 
WAZ021-516-517-210100-
WASHINGTON COAST
  
CITY           SKY/WX    TMP DP  RH WIND       PRES   REMARKS
FORKS          MOSUNNY   45  30  55 NE10      29.86R                  
6HR MIN TEMP:  38; 6HR MAX TEMP:  47;                                

HOQUIAM        PTSUNNY   46  36  68 SW6       29.84R                  
6HR MIN TEMP:  36; 6HR MAX TEMP:  48; 6HR PCP: TRACE;                

ASTORIA, OR    SUNNY     45  35  68 NW13      29.82S                  
6HR MIN TEMP:  42; 6HR MAX TEMP:  47; 6HR PCP:  0.04;                

$$
 
WAZ019-023-024-040-567>569-210100-
CASCADE MOUNTAINS AND COLUMBIA GORGE
  
CITY           SKY/WX    TMP DP  RH WIND       PRES   REMARKS
STAMPEDE PASS  CLOUDY    26  23  88 VRB5      29.69R FOG              
6HR MIN TEMP:  26; 6HR MAX TEMP:  27; 6HR PCP: TRACE;                

TROUTDALE, OR  MOSUNNY   44  36  73 SE3       29.82S                  
6HR MIN TEMP:  40; 6HR MAX TEMP:  46; 6HR PCP:  0.08;                

HOOD RIVER, OR PTCLDY    39  32  75 NW5       29.79S                  
THE DALLES, OR CLOUDY    34  28  79 E9        29.84R                  
6HR MIN TEMP:  33; 6HR MAX TEMP:  41; 6HR PCP: TRACE;                

$$

WAZ026-027-041>044-520-521-210100-
EAST SLOPES
  
CITY           SKY/WX    TMP DP  RH WIND       PRES   REMARKS
OMAK           MOSUNNY   37  23  56 N13       29.82R                  
6HR MIN TEMP:  26; 6HR MAX TEMP:  37;                                

WENATCHEE      CLOUDY    31  20  63 CALM      29.83R                  
6HR MIN TEMP:  23; 6HR MAX TEMP:  32;                                

ELLENSBURG     CLOUDY    33  25  72 NE3       29.79R                  
6HR MIN TEMP:  26; 6HR MAX TEMP:  36; 6HR PCP: TRACE;                

YAKIMA         PTSUNNY   32  23  69 E3        29.83R                  
6HR MIN TEMP:  22; 6HR MAX TEMP:  33;                                

SUNNYSIDE ARPT CLOUDY    30  25  81 CALM      29.86                   
6HR MIN TEMP:  24; 6HR MAX TEMP:  30;                                

YAKIMA TC      FAIR      33  23  67 CALM      29.79S                  
6HR MIN TEMP:  22; 6HR MAX TEMP:  33;                                

$$

WAZ028-034-035-210100-
COLUMBIA BASIN
  
CITY           SKY/WX    TMP DP  RH WIND       PRES   REMARKS
EPHRATA        MOSUNNY   30  20  66 N8        29.82R                  
6HR MIN TEMP:  27; 6HR MAX TEMP:  33;                                

MOSES LAKE     MOSUNNY   32  21  64 NW6       29.83R                  
6HR MIN TEMP:  28; 6HR MAX TEMP:  35;                                

PASCO          MOSUNNY   35  23  61 CALM      29.88R                  
6HR MIN TEMP:  28; 6HR MAX TEMP:  36; 6HR PCP: TRACE;                

RICHLAND ARPT  CLEAR     35  26  71 NW3       29.88                   
6HR MIN TEMP:  32; 6HR MAX TEMP:  35;                                

HERMISTON, OR  PTSUNNY   33  25  72 NE6       29.85R                  
6HR MIN TEMP:  31; 6HR MAX TEMP:  34;                                

$$

WAZ036>038-210100-
NORTHEAST WASHINGTON
  
CITY           SKY/WX    TMP DP  RH WIND       PRES   REMARKS
SPOKANE GEIGER FLURRIES  30  22  72 CALM      29.75R                  
6HR MIN TEMP:  24; 6HR MAX TEMP:  31; 6HR PCP:  0.01;                

SPOKANE FELTS  CLOUDY    32  22  66 CALM      29.77R                  
6HR MIN TEMP:  27; 6HR MAX TEMP:  33; 6HR PCP: TRACE;                

FAIRCHILD AFB  CLOUDY    28  24  86 N5        29.74S                  
6HR MIN TEMP:  23; 6HR MAX TEMP:  28; 6HR PCP:  0.05;                

COEURDALENE,ID PTSUNNY   28  22  78 N14       29.75R WCI  17          
6HR MIN TEMP:  25; 6HR MAX TEMP:  30; 6HR PCP: TRACE;                

DEER PARK      PTSUNNY   30  18  60 N8        29.77R                  
6HR MIN TEMP:  26; 6HR MAX TEMP:  32;                                

$$

WAZ029>033-210100-
SOUTHEAST WASHINGTON
  
CITY           SKY/WX    TMP DP  RH WIND       PRES   REMARKS
PULLMAN        CLOUDY    23  21  92 W7        29.75S FOG              
6HR MIN TEMP:  23; 6HR MAX TEMP:  25; 6HR PCP:  0.01;                

LEWISTON, ID   LGT SNOW  29  23  78 SW7       29.80R                  
6HR MIN TEMP:  29; 6HR MAX TEMP:  30; 6HR PCP:  0.06;                

WALLA WALLA    CLOUDY    29  22  75 CALM      29.82S                  
6HR MIN TEMP:  25; 6HR MAX TEMP:  29; 6HR PCP: TRACE;                

PENDLETON, OR  FLURRIES  29  24  82 NE6       29.79S                  
6HR MIN TEMP:  26; 6HR MAX TEMP:  30; 6HR PCP: TRACE;                

$$